[[{"header":{"parameterUnit":"m.s-1","parameterCategory":1,"la1":30.2991,"la2":30.254,"lo1":-89.0895,"lo2":-89.0444,"dy":0.0017,"dx":0.0017,"nx":28,"ny":28,"refTime":"2025-02-12T03:00:00:Z","depth":0,"parameterNumber":2,"parameterNumberName":"U-component_of_WINDS"},"data":[0,0,0,0,0,0,0,0,0,0,0,0,0,0,0,0,0,0,0,0,0,0,0,0,0,0,0,0,0,0,0,0,0,0,0,0,0,0,0,0,0,0,0,0,0,0,0,0,0,0,0,0,0,0,0,0,0,0,-0.4221,-0.4222,0,-0.4326,-0.4327,-0.4329,-0.4391,-0.4391,-0.4391,-0.4392,-0.4496,-0.4498,-0.4501,0,0,0,0,0,0,0,0,0,0,0,0,0,-0.4073,-0.4075,-0.4221,-0.4223,-0.4224,-0.4326,-0.4327,-0.4329,-0.4391,-0.4391,-0.4392,-0.4392,-0.4495,-0.4498,-0.4501,0,0,0,0,0,0,0,0,0,0,0,0,0,-0.4153,-0.4076,-0.4221,-0.4267,-0.4272,-0.4326,-0.4327,-0.4329,-0.4391,-0.4391,-0.4392,-0.4392,-0.4494,-0.4498,-0.4502,-0.4516,0,0,-0.4513,-0.4515,0,0,0,0,0,0,0,0,-0.4148,-0.4159,-0.4259,-0.4264,-0.427,-0.4346,-0.4313,-0.4392,-0.4391,-0.4346,-0.4392,-0.4392,-0.4446,-0.4453,-0.4472,-0.4521,-0.4526,-0.4513,-0.4516,-0.4517,-0.4518,0,0,0,0,0,0,0,-0.4143,-0.4154,-0.4263,-0.426,-0.4267,-0.4282,-0.4294,-0.4329,-0.4392,-0.435,-0.4354,-0.4366,-0.4449,-0.4468,-0.4475,-0.4527,-0.4513,-0.4517,-0.4519,-0.452,-0.4595,-0.4594,0,0,0,0,0,0,-0.413,-0.4149,-0.4259,-0.4266,-0.4209,-0.4284,-0.4298,-0.4321,-0.4392,-0.4403,-0.4366,-0.4369,-0.4462,-0.447,-0.4479,-0.4501,-0.4517,-0.4521,-0.4523,-0.4595,-0.4595,-0.4594,0,0,0,0,0,0,-0.4127,-0.4139,-0.4255,-0.4209,-0.4225,-0.4286,-0.4312,-0.4323,-0.4343,-0.4404,-0.4415,-0.4374,-0.4462,-0.4473,-0.4507,-0.4506,-0.4523,-0.4526,-0.4595,-0.4595,-0.4594,-0.4546,0,0,0,0,0,0,-0.4122,-0.4138,-0.4144,-0.4209,-0.4227,-0.4282,-0.4312,-0.4325,-0.4349,-0.4354,-0.4415,-0.4425,-0.4463,-0.4501,-0.4511,-0.4511,-0.4529,-0.4596,-0.4595,-0.4595,-0.4548,-0.4544,-0.454,0,0,0,0,0,-0.4117,-0.4126,-0.4144,-0.4157,-0.4237,-0.4282,-0.4292,-0.4337,-0.4349,-0.4356,-0.4395,-0.4423,-0.4504,-0.4504,-0.4515,-0.4517,-0.4596,-0.4595,-0.4595,-0.4549,-0.4545,-0.454,0,0,0,0,0,0,-0.4058,-0.4135,-0.4157,-0.4187,-0.4227,-0.4292,-0.4302,-0.433,-0.4367,-0.437,-0.4423,-0.4436,-0.4465,-0.4494,-0.4492,-0.4535,-0.4553,-0.4555,-0.4515,-0.4511,-0.4507,-0.4499,-0.4532,0,0,0,0,0,-0.4049,-0.408,-0.4145,-0.4165,-0.4185,-0.424,-0.4261,-0.4292,-0.4336,-0.4353,-0.4395,-0.4436,-0.4471,-0.4493,-0.4528,-0.4553,-0.4567,-0.4559,-0.4556,-0.4552,-0.4553,-0.4569,-0.4567,-0.4592,-0.4592,-0.4592,0,0,-0.403,-0.4076,-0.4092,-0.4155,-0.419,-0.422,-0.4254,-0.4284,-0.4307,-0.4358,-0.4392,-0.4424,-0.4473,-0.4503,-0.4518,-0.4528,-0.4549,-0.4551,-0.4548,-0.4551,-0.4568,-0.4566,-0.4563,-0.4592,-0.4592,-0.4592,0,0,-0.4011,-0.4048,-0.407,-0.4105,-0.4158,-0.4195,-0.42,-0.4261,-0.4285,-0.4321,-0.436,-0.4387,-0.4446,-0.448,-0.4505,-0.45,-0.4527,-0.451,-0.449,-0.4505,-0.4503,-0.4501,-0.45,-0.4499,-0.451,-0.451,-0.451,0,-0.398,-0.4028,-0.4077,-0.4106,-0.4133,-0.4181,-0.4203,-0.4234,-0.4296,-0.4313,-0.4324,-0.44,-0.4436,-0.4475,-0.4474,-0.4492,-0.4499,-0.4503,-0.4499,-0.4498,-0.4498,-0.4497,-0.4496,-0.4508,-0.4508,-0.4508,-0.4508,0,-0.3988,-0.4021,-0.4032,-0.4091,-0.4119,-0.4144,-0.4197,-0.4219,-0.4248,-0.4283,-0.4319,-0.4365,-0.4411,-0.4422,-0.445,-0.4465,-0.447,-0.4489,-0.4509,-0.4492,-0.4492,-0.4492,-0.4504,-0.4505,-0.4506,-0.4506,0,0,-0.3934,-0.4022,-0.4025,-0.4053,-0.4116,-0.4142,-0.4169,-0.4216,-0.4234,-0.4275,-0.4299,-0.4349,-0.4368,-0.4396,-0.4428,-0.4441,-0.4435,-0.4459,-0.4461,-0.4453,-0.4455,-0.4439,-0.4438,-0.4454,-0.4454,-0.4454,-0.4451,0,-0.3924,-0.3977,-0.4022,-0.4058,-0.4089,-0.4136,-0.416,-0.4201,-0.4235,-0.4266,-0.4303,-0.4338,-0.436,-0.4377,-0.4393,-0.4432,-0.4436,-0.4433,-0.4476,-0.4477,-0.4463,-0.4438,-0.4422,-0.4417,-0.4451,-0.4451,-0.4451,0,-0.3919,-0.396,-0.3999,-0.406,-0.4075,-0.4096,-0.4142,-0.4171,-0.4219,-0.4243,-0.4275,-0.4309,-0.434,-0.4356,-0.44,-0.4397,-0.4417,-0.444,-0.4441,-0.4446,-0.4463,-0.4443,-0.4416,-0.4415,-0.4451,-0.4451,-0.4451,0,-0.3876,-0.3941,-0.3973,-0.3996,-0.4067,-0.4081,-0.4111,-0.416,-0.4185,-0.4225,-0.4242,-0.4285,-0.4309,-0.4341,-0.4386,-0.4393,-0.4425,-0.4444,-0.4445,-0.4444,-0.4449,-0.4448,-0.4425,-0.4462,-0.4462,-0.4462,-0.4462,0,-0.3861,-0.3883,-0.3955,-0.3974,-0.4001,-0.4053,-0.4077,-0.4111,-0.4154,-0.4181,-0.4224,-0.4248,-0.4306,-0.4337,-0.4372,-0.4403,-0.4413,-0.4434,-0.4443,-0.443,-0.4427,-0.4444,-0.4445,-0.4462,-0.4462,-0.4462,-0.4462,0,-0.3817,-0.3866,-0.3904,-0.397,-0.3987,-0.4003,-0.4059,-0.408,-0.4117,-0.415,-0.4161,-0.4219,-0.4258,-0.4306,-0.436,-0.4384,-0.4412,-0.4425,-0.4396,-0.4401,-0.4399,-0.4399,-0.4386,-0.4387,-0.4423,-0.4422,-0.4422,0,-0.3803,-0.3822,-0.389,-0.3912,-0.3941,-0.3975,-0.4002,-0.4054,-0.4079,-0.4136,-0.4149,-0.4192,-0.4229,-0.4289,-0.4336,-0.4377,-0.4393,-0.4385,-0.4399,-0.4386,-0.4393,-0.4391,-0.4393,-0.4381,-0.4381,-0.438,-0.438,0,-0.3775,-0.3798,-0.3835,-0.3881,-0.3912,-0.395,-0.399,-0.4005,-0.4065,-0.4091,-0.4133,-0.4161,-0.4218,-0.4259,-0.4307,-0.4338,-0.4369,-0.4375,-0.4378,-0.4364,-0.4347,-0.4357,-0.4386,-0.4375,-0.4375,-0.4376,-0.4376,-0.4376,-0.3746,-0.3765,-0.3816,-0.3856,-0.3892,-0.3928,-0.3951,-0.3992,-0.4028,-0.4078,-0.4106,-0.4147,-0.4195,-0.4263,-0.4293,-0.4325,-0.4336,-0.4339,-0.434,-0.434,-0.4337,-0.4342,-0.4334,-0.4334,-0.4334,-0.4334,-0.4335,0,-0.372,-0.3755,-0.3791,-0.3847,-0.3878,-0.3906,-0.3952,-0.3976,-0.4011,-0.4054,-0.409,-0.4137,-0.4178,-0.4229,-0.4273,-0.4289,-0.4305,-0.4299,-0.4299,-0.4305,-0.4324,-0.4318,-0.4286,-0.4286,-0.4286,-0.4286,-0.4286,-0.4286,-0.3709,-0.3743,-0.3773,-0.3825,-0.3861,-0.3901,-0.3925,-0.3959,-0.3994,-0.4045,-0.408,-0.4113,-0.4159,-0.4208,-0.4247,-0.4261,-0.4275,-0.4265,-0.4283,-0.43,-0.4304,-0.4308,-0.4302,-0.4268,-0.4268,-0.4262,-0.4262,-0.4262]},{"header":{"parameterUnit":"m.s-1","parameterCategory":1,"la1":30.2991,"la2":30.254,"lo1":-89.0895,"lo2":-89.0444,"dy":0.0017,"dx":0.0017,"nx":28,"ny":28,"refTime":"2025-02-12T03:00:00:Z","depth":0,"parameterNumber":3,"parameterNumberName":"V-component_of_WINDS"},"data":[0,0,0,0,0,0,0,0,0,0,0,0,0,0,0,0,0,0,0,0,0,0,0,0,0,0,0,0,0,0,0,0,0,0,0,0,0,0,0,0,0,0,0,0,0,0,0,0,0,0,0,0,0,0,0,0,0,0,6.9269,6.927,0,6.9388,6.939,6.9391,6.9407,6.9405,6.9404,6.9403,6.952,6.9524,6.9528,0,0,0,0,0,0,0,0,0,0,0,0,0,6.905,6.9054,6.9269,6.927,6.9272,6.9388,6.939,6.9391,6.9407,6.9405,6.9404,6.9403,6.9519,6.9524,6.9529,0,0,0,0,0,0,0,0,0,0,0,0,0,6.9154,6.9055,6.9268,6.9294,6.9297,6.9388,6.939,6.9392,6.9407,6.9405,6.9404,6.9402,6.9517,6.9523,6.9529,6.9602,0,0,6.9548,6.9551,0,0,0,0,0,0,0,0,6.9148,6.9162,6.9288,6.9292,6.9296,6.9381,6.9355,6.9462,6.9407,6.9365,6.9403,6.9401,6.9475,6.9484,6.951,6.9607,6.9612,6.9549,6.9553,6.9555,6.9557,0,0,0,0,0,0,0,6.9141,6.9157,6.9316,6.929,6.9295,6.9297,6.9311,6.9376,6.9428,6.9369,6.937,6.9384,6.9477,6.9504,6.9513,6.9614,6.9549,6.9554,6.9558,6.9561,6.9779,6.9781,0,0,0,0,0,0,6.913,6.9151,6.9312,6.9319,6.9217,6.9303,6.9317,6.9355,6.9427,6.9437,6.9386,6.9385,6.9495,6.9506,6.9517,6.9609,6.9555,6.9561,6.9565,6.9777,6.9779,6.9782,0,0,0,0,0,0,6.9125,6.9144,6.9307,6.9236,6.9257,6.9308,6.9351,6.9359,6.9387,6.944,6.9449,6.9405,6.9494,6.9509,6.9582,6.9613,6.9564,6.957,6.9774,6.9778,6.978,6.9792,0,0,0,0,0,0,6.9119,6.9142,6.9171,6.9236,6.9261,6.9371,6.9353,6.9362,6.9398,6.9398,6.946,6.9469,6.9493,6.9572,6.9588,6.9621,6.9575,6.9772,6.9776,6.9779,6.9789,6.9795,6.98,0,0,0,0,0,6.9111,6.9168,6.9173,6.9192,6.9298,6.9373,6.9386,6.9415,6.94,6.943,6.9464,6.9467,6.9607,6.958,6.9597,6.9633,6.977,6.9775,6.9779,6.9786,6.9794,6.98,0,0,0,0,0,0,6.9102,6.9177,6.9183,6.9263,6.9312,6.9375,6.9413,6.9421,6.9473,6.9471,6.9502,6.9516,6.9588,6.9617,6.9586,6.9708,6.9687,6.9695,6.9687,6.9694,6.97,6.9692,6.958,0,0,0,0,0,6.911,6.9166,6.9227,6.9292,6.9316,6.936,6.9394,6.9412,6.9463,6.9483,6.9523,6.9571,6.9626,6.9661,6.9714,6.9793,6.9808,6.9826,6.9832,6.9836,6.9843,6.9889,6.9899,6.9797,6.9797,6.9797,0,0,6.9126,6.9174,6.9206,6.9291,6.9331,6.9388,6.9377,6.9437,6.9479,6.9491,6.9564,6.9595,6.965,6.9727,6.9763,6.9754,6.9875,6.9842,6.9845,6.985,6.9895,6.9905,6.9913,6.98,6.9799,6.9799,0,0,6.9185,6.9226,6.9286,6.9327,6.9388,6.9417,6.9432,6.9495,6.9517,6.9591,6.9602,6.9651,6.9745,6.9785,6.9817,6.9894,6.9899,6.991,6.9939,6.9984,6.9992,6.9999,7.0028,7.0038,6.9916,6.9916,6.9917,0,6.9196,6.9284,6.9314,6.9375,6.9413,6.9429,6.949,6.9527,6.9602,6.9627,6.9616,6.9736,6.9774,6.9862,6.9881,6.9906,6.9924,6.9903,6.9989,6.9996,7.0003,7.0032,7.0042,6.9918,6.9917,6.9917,6.9917,0,6.9296,6.9356,6.9397,6.9472,6.9514,6.9574,6.9613,6.9651,6.9666,6.9696,6.9772,6.9819,6.9883,6.9905,6.9918,6.9995,6.9988,6.9982,6.9962,7.0014,7.0041,7.0052,6.9919,6.9919,6.9918,6.9918,0,0,6.9352,6.9446,6.946,6.9496,6.9566,6.9612,6.9673,6.9738,6.9772,6.9822,6.9875,6.9955,6.9951,6.9988,7.0006,7.0045,7.0105,7.0035,7.0037,7.0048,7.0195,7.02,7.0212,7.0109,7.0111,7.0113,7.0191,0,6.942,6.9532,6.9562,6.9656,6.9713,6.973,6.9783,6.9831,6.9862,6.9913,6.9945,7.0003,6.9992,7.0015,7.0054,7.009,7.0135,7.0084,7.0158,7.016,7.0146,7.0226,7.0231,7.0303,7.0202,7.0203,7.0205,0,6.9514,6.9571,6.9672,6.9737,6.9762,6.981,6.9873,6.9922,6.9977,6.9997,7.0039,7.0055,7.0119,7.0094,7.0183,7.0148,7.018,7.0202,7.0205,7.0214,7.0187,7.0239,7.0326,7.0338,7.0221,7.022,7.0219,0,6.9548,6.9649,6.9723,6.9752,6.983,6.9863,6.9896,6.995,6.9988,7.0043,7.0069,7.0129,7.0162,7.0209,7.024,7.0219,7.0327,7.0304,7.0345,7.0344,7.0368,7.0366,7.0463,7.0385,7.0385,7.0385,7.0385,0,6.9622,6.9683,6.974,6.9785,6.9855,6.9889,6.9956,6.999,7.0038,7.009,7.0107,7.0155,7.0192,7.0246,7.027,7.0341,7.0355,7.0373,7.0379,7.0372,7.0371,7.0395,7.0391,7.0388,7.0387,7.0386,7.0386,0,6.9672,6.9712,6.9794,6.9862,6.988,6.9928,6.9986,7.003,7.0061,7.0127,7.0144,7.0193,7.0257,7.0293,7.0371,7.0388,7.0468,7.047,7.045,7.0453,7.0493,7.0489,7.061,7.0629,7.0536,7.0537,7.0538,0,6.9717,6.9765,6.9839,6.9877,6.9911,6.9971,7.0011,7.0046,7.0087,7.0155,7.0191,7.0257,7.0311,7.0412,7.0454,7.0515,7.052,7.0558,7.0529,7.0522,7.0523,7.0521,7.0527,7.0563,7.0564,7.0565,7.0565,0,6.9794,6.9813,6.9871,6.9937,6.9985,7.0038,7.009,7.0119,7.0163,7.0207,7.0275,7.0317,7.04,7.0465,7.053,7.0563,7.0572,7.0574,7.0587,7.0582,7.057,7.0579,7.0466,7.0572,7.0571,7.0571,7.057,7.057,6.9845,6.989,6.995,7.0014,7.0058,7.0107,7.0154,7.0192,7.0249,7.0321,7.0337,7.0408,7.0463,7.0552,7.0587,7.0643,7.0636,7.0654,7.0659,7.0663,7.0666,7.056,7.0654,7.0654,7.0654,7.0654,7.0654,0,6.9925,6.9965,7.0024,7.0099,7.015,7.0156,7.0214,7.0257,7.032,7.0371,7.0426,7.0503,7.0567,7.0614,7.0679,7.0715,7.0721,7.0731,7.0729,7.0737,7.0667,7.0651,7.0725,7.0725,7.0725,7.0725,7.0725,7.0725,6.9973,7.005,7.0075,7.0174,7.0213,7.0285,7.0318,7.0364,7.0406,7.0493,7.0547,7.0578,7.0628,7.0697,7.0756,7.0768,7.0792,7.0802,7.0815,7.0749,7.0742,7.0735,7.0719,7.0807,7.0807,7.0881,7.0881,7.0882]}]]